Regional Weather Roundup
Issued by NWS

Home | Current Version | Previous Version | Graphics & Text | Print | Product List | Glossary On
Versions: 1 2 3 4 5 6 7 8 9 10 11 12 13 14 15 16 17 18 19 20 21 22 23 24 25 26 27 28 29 30 31 32 33 34 35 36 37 38 39 40 41 42 43 44 45 46 47 48 49 50
000
ASUS43 KLMK 010910
RWRKY
KENTUCKY REGIONAL WEATHER ROUNDUP
NATIONAL WEATHER SERVICE LOUISVILLE KY
500 AM EDT FRI AUG 01 2014

NOTE "FAIR" INDICATES FEW OR NO CLOUDS BELOW 12,000 FEET
WITH NO SIGNIFICANT WEATHER AND/OR OBSTRUCTIONS TO VISIBILITY.

KYZ001>023-026-027-061>063-070>075-011000-
WESTERN AND SOUTH CENTRAL KENTUCKY

CITY           SKY/WX    TMP DP  RH WIND       PRES   REMARKS
PADUCAH        MOCLDY    62  59  90 CALM      30.06S
HENDERSON      PTCLDY    61  57  88 CALM      30.07R
OWENSBORO      CLEAR     63  60  90 CALM      30.07S
HOPKINSVILLE   CLEAR     63  63 100 CALM      30.06S
BOWLING GREEN  CLEAR     61  58  90 CALM      30.07R
GLASGOW        CLEAR     60  60 100 CALM      30.07S FOG
$$

KYZ024-025-028>034-038-045-046-053-011000-
NORTH CENTRAL KENTUCKY

CITY           SKY/WX    TMP DP  RH WIND       PRES   REMARKS
LOUISVILLE/SDF CLEAR     66  59  78 CALM      30.07S
LOUISVILLE/LOU CLEAR     64  59  83 CALM      30.08S
FORT KNOX      CLEAR     58  58  98 CALM      30.07S
$$

KYZ035>037-039>044-047>052-055>060-089>105-011000-
NORTHEAST KENTUCKY

CITY           SKY/WX    TMP DP  RH WIND       PRES   REMARKS
LEXINGTON      CLEAR     62  58  86 CALM      30.09S
COVINGTON      CLEAR     63  58  83 CALM      30.09S
FRANKFORT      CLEAR     59  57  93 CALM      30.08S
$$

KYZ054-064>069-076>088-106>120-011000-
SOUTHEAST KENTUCKY

CITY           SKY/WX    TMP DP  RH WIND       PRES   REMARKS
JACKSON        MOCLDY    65  59  81 CALM      30.10S
LONDON         PTCLDY    64  60  87 CALM      30.10R
SOMERSET       CLEAR     61  61 100 CALM      30.10R
MIDDLESBORO    PTCLDY    61  61  99 CALM      30.11S
MONTICELLO     MOSUNNY   59  59 100 CALM      30.10S FOG
$$



USA.gov is the U.S. government's official web portal to all federal, state and local government web resources and services.